Back to catalog

STARLINK-35017

AliveCommunicationsSSO
NORAD 65292·PAYLOAD·🇺🇸 United States

Launched Aug 22, 2025 from Vandenberg Space Force Base

Loading…

Next Passes (next 24 hours)

TLE

FreshSource: CelesTrak SupGP

Epoch: Sep 14, 2026, 14:21 UTC

1 65292C 25184V   26257.59840278  .00038189  00000+0  11854-2 0  2575
2 65292  97.2832 305.7015 0001335  97.2006 246.6791 15.33421426    11

Track STARLINK-35017 in real time with AllMySat

Download on the App Store